カタログに戻る

STARLINK-2015

運用中通信VLEO
NORAD 47638·PAYLOAD·🇺🇸 United States

打ち上げ Feb 16, 2021 から Cape Canaveral Space Force Station

Loading…

次のパス (今後24時間)

TLE

最新Source: CelesTrak SupGP

元期: Sep 15, 2026, 01:46 UTC

1 47638C 21012U   26258.07409722  .00062803  00000+0  13471-2 0  2582
2 47638  53.1530 165.0783 0001312 121.0761 139.0225 15.44111703    12

AllMySatでSTARLINK-2015をリアルタイム追跡

Download on the App Store